Change the Weather History Date:

Thursday, January 3, 2013

  Actual Average Record
Temperature  
Mean Temperature 23 °F 24 °F  
Max Temperature 31 °F 31 °F 58 °F (2004)
Min Temperature 15 °F 17 °F -6 °F (2014)
Degree Days  
Heating Degree Days 42 41  
Month to date heating degree days 135 123  
Since 1 July heating degree days 2320 2525  
Cooling Degree Days 0 0  
Month to date cooling degree days 0 0  
Year to date cooling degree days 0 0  
Moisture  
Dew Point 18 °F    
Average Humidity 75    
Maximum Humidity 86    
Minimum Humidity 64    
Precipitation  
Precipitation 0.00 in 0.06 in 0.74 in (2005)
Month to date precipitation 0.00 0.17  
Year to date precipitation 0.00 0.17  
Sea Level Pressure  
Sea Level Pressure 30.19 in    
Wind  
Wind Speed 11 mph (WSW)    
Max Wind Speed 18 mph    
Max Gust Speed 24 mph    
Visibility 9 miles    
Events      
T = Trace of Precipitation, MM = Missing Value Source: NWS Daily Summary

Daily Weather History Graph

Daily Weather History Graph

Search for Another Location

Airport or City:

Trip Planner

Search our weather history database for the weather conditions in past years. The results will help you decide how hot, cold, wet, or windy it might be!

Date:

Astronomy

Jan. 03, 2013 Rise Set
Actual Time 7:14 AM CST 4:31 PM CST
Civil Twilight 6:43 AM CST 5:02 PM CST
Nautical Twilight 6:08 AM CST 5:36 PM CST
Astronomical Twilight 5:35 AM CST 6:10 PM CST
Moon 11:11 PM CST (1/3) 10:21 AM CST (1/3)
Length of Visible Light 10h 18m
Length of Day
9h 16m
Waning Gibbous, 65% of the Moon is Illuminated
Jan 3
Waning Gibbous
Jan 4
Last Quarter
Jan 11
New
Jan 18
First Quarter
Jan 26
Full

Hourly Weather History & Observations

Time (CST) Temp. Windchill Dew Point Humidity Pressure Visibility Wind Dir Wind Speed Gust Speed Precip Events Conditions
12:53 AM 17.1 °F 7.6 °F 9.0 °F 71% 30.16 in 10.0 mi SSW 6.9 mph - N/A   Mostly Cloudy
2:53 AM 21.0 °F 9.3 °F 12.9 °F 71% 30.16 in 10.0 mi SW 11.5 mph - N/A   Overcast
3:53 AM 21.0 °F 9.3 °F 14.0 °F 74% 30.15 in 10.0 mi SW 11.5 mph - N/A   Overcast
4:04 AM 21.2 °F 11.7 °F 15.8 °F 80% 30.11 in 10.0 mi SW 8.1 mph - N/A   Overcast
4:41 AM 21.2 °F 10.1 °F 15.8 °F 80% 30.11 in 9.0 mi SW 10.4 mph - N/A   Overcast
4:53 AM 21.9 °F 11.0 °F 16.0 °F 78% 30.15 in 9.0 mi SW 10.4 mph - N/A   Overcast
5:53 AM 21.0 °F 10.6 °F 16.0 °F 81% 30.16 in 8.0 mi SW 9.2 mph - N/A   Mostly Cloudy
6:22 AM 21.2 °F 10.1 °F 17.6 °F 86% 30.13 in 8.0 mi SW 10.4 mph - N/A   Overcast
6:53 AM 23.0 °F 11.1 °F 18.0 °F 81% 30.17 in 8.0 mi SW 12.7 mph - N/A   Overcast
7:02 AM 23.0 °F 13.1 °F 17.6 °F 80% 30.13 in 8.0 mi SW 9.2 mph - N/A   Overcast
7:53 AM 24.1 °F 14.4 °F 19.0 °F 81% 30.18 in 6.0 mi WSW 9.2 mph - N/A   Haze
8:10 AM 24.8 °F 14.6 °F 19.4 °F 80% 30.13 in 6.0 mi SW 10.4 mph - N/A   Overcast
8:53 AM 26.1 °F 16.2 °F 21.9 °F 84% 30.18 in 5.0 mi WSW 10.4 mph - N/A   Overcast
9:11 AM 26.6 °F 18.2 °F 21.2 °F 80% 30.15 in 6.0 mi WSW 8.1 mph - N/A   Haze
9:53 AM 28.9 °F 19.8 °F 24.1 °F 82% 30.20 in 6.0 mi WSW 10.4 mph - N/A   Haze
10:10 AM 28.4 °F 19.1 °F 24.8 °F 86% 30.17 in 5.0 mi West 10.4 mph - N/A   Haze
10:53 AM 30.0 °F 19.1 °F 21.9 °F 72% 30.20 in 10.0 mi West 15.0 mph - N/A   Overcast
11:22 AM 30.2 °F 20.2 °F 21.2 °F 69% 30.16 in 10.0 mi West 12.7 mph - N/A   Overcast
11:53 AM 30.0 °F 19.5 °F 21.0 °F 69% 30.19 in 10.0 mi West 13.8 mph 20.7 mph N/A   Overcast
12:53 PM 30.0 °F 21.7 °F 21.9 °F 72% 30.19 in 10.0 mi West 9.2 mph - N/A   Overcast
1:15 PM 30.2 °F 19.3 °F 21.2 °F 69% 30.15 in 10.0 mi West 15.0 mph 18.4 mph N/A   Overcast
1:53 PM 30.0 °F 17.9 °F 19.9 °F 66% 30.20 in 10.0 mi West 18.4 mph - N/A   Overcast
2:53 PM 30.0 °F 19.1 °F 19.9 °F 66% 30.22 in 10.0 mi WNW 15.0 mph 20.7 mph N/A   Overcast
3:53 PM 28.9 °F 19.8 °F 19.0 °F 67% 30.23 in 10.0 mi WNW 10.4 mph - N/A   Overcast
4:53 PM 28.9 °F 18.2 °F 18.0 °F 64% 30.25 in 10.0 mi West 13.8 mph - N/A   Overcast
5:53 PM 28.0 °F 20.0 °F 18.0 °F 66% 30.26 in 10.0 mi West 8.1 mph - N/A   Overcast
6:53 PM 27.0 °F 17.3 °F 17.1 °F 66% 30.28 in 10.0 mi West 10.4 mph - N/A   Overcast
7:53 PM 25.0 °F 16.3 °F 17.1 °F 72% 30.28 in 10.0 mi WSW 8.1 mph - N/A   Mostly Cloudy
8:53 PM 24.1 °F 14.4 °F 17.1 °F 75% 30.28 in 10.0 mi WSW 9.2 mph - N/A   Scattered Clouds
9:53 PM 24.1 °F 12.5 °F 18.0 °F 77% 30.28 in 10.0 mi West 12.7 mph - N/A   Overcast
10:53 PM 21.9 °F 9.8 °F 17.1 °F 82% 30.28 in 10.0 mi West 12.7 mph - N/A   Scattered Clouds
11:53 PM 19.9 °F 8.6 °F 16.0 °F 85% 30.28 in 9.0 mi WSW 10.4 mph - N/A   Clear